Location: Newark
(47.9297°N, 19.1367°E)
Time: 03:40:06
(UTC+00:00)

AO-85 - Visible Passes

Search period start: 25 November 2020 00:00
Search period end: 05 December 2020 00:00
Orbit: 521 x 762 km, 64.8° (Epoch: 12 March)

Date Brightness Start Highest point End Pass type
(mag) Time Alt. Az. Time Alt. Az. Time Alt. Az.
25 Nov ? 02:16:06 12° NE 02:16:06 12° NE 02:17:02 10° ENE visible
25 Nov ? 03:53:42 27° NNW 03:55:51 49° NE 04:00:35 10° ESE visible
26 Nov ? 02:40:16 21° NE 02:40:16 21° NE 02:43:11 10° E visible
26 Nov ? 04:17:53 27° NW 04:20:23 83° SW 04:25:19 10° SSE visible
27 Nov ? 03:04:30 36° NE 03:04:30 36° NE 03:08:47 10° ESE visible
27 Nov ? 04:42:08 21° WNW 04:44:45 40° WSW 04:49:20 10° S visible
28 Nov ? 03:28:50 70° NE 03:28:56 70° NE 03:33:49 10° SE visible
28 Nov ? 05:06:27 13° WNW 05:08:56 19° WSW 05:12:23 10° SSW visible
29 Nov ? 02:15:36 16° E 02:15:36 16° E 02:16:52 10° E visible
29 Nov ? 03:53:14 57° WSW 03:53:22 57° WSW 03:58:13 10° SSE visible
30 Nov ? 02:40:05 24° ESE 02:40:05 24° ESE 02:42:12 10° ESE visible
30 Nov ? 04:17:43 27° WSW 04:17:43 27° WSW 04:21:48 10° S visible
01 Dec ? 03:04:39 27° SSE 03:04:39 27° SSE 03:06:54 10° SSE visible
01 Dec ? 04:42:18 13° WSW 04:42:18 13° WSW 04:43:54 10° SW visible
02 Dec ? 03:29:18 19° S 03:29:18 19° S 03:30:55 10° S visible
04 Dec ? 16:49:10 10° SSE 16:49:39 12° SSE 16:49:39 12° SSE visible
